Jackson, MN

9:21 PM CST on February 21, 2018 (GMT -0600)
Jackson Municipal

Weather History for KMJQ - September, 2013

Change the Weather History Date:

Sunday, September 1, 2013

  Actual Average Record
Temperature  
Mean Temperature 64 °F -  
Max Temperature 73 °F 76 °F 89 °F (1997)
Min Temperature 55 °F 55 °F 48 °F (1998)
Degree Days  
Heating Degree Days 1    
Growing Degree Days 14 (Base 50)    
Moisture  
Dew Point 57 °F    
Average Humidity 71    
Maximum Humidity 88    
Minimum Humidity 57    
Precipitation  
Precipitation 0.00 in - - ()
Sea Level Pressure  
Sea Level Pressure 29.94 in    
Wind  
Wind Speed 10 mph (NNW)    
Max Wind Speed 23 mph    
Max Gust Speed 29 mph    
Visibility 10 miles    
Events Thunderstorm    
Averages and records for this station are not official NWS values.
T = Trace of Precipitation, MM = Missing Value Source: NWS Daily Summary

Daily Weather History Graph

Daily Weather History Graph

Search for Another Location

Airport or City:

Trip Planner

Search our weather history database for the weather conditions in past years. The results will help you decide how hot, cold, wet, or windy it might be!

Date:

Astronomy

Sep. 01, 2013 Rise Set
Actual Time 6:43 AM CDT 7:54 PM CDT
Civil Twilight 6:14 AM CDT 8:24 PM CDT
Nautical Twilight 5:38 AM CDT 8:59 PM CDT
Astronomical Twilight 5:01 AM CDT 9:36 PM CDT
Moon 3:02 AM CDT (9/1) 5:36 PM CDT (9/1)
Length of Visible Light 14h 10m
Length of Day
13h 11m
Waning Crescent, 13% of the Moon is Illuminated
Sep 1
Waning Crescent
Sep 5
New
Sep 12
First Quarter
Sep 19
Full
Sep 26
Last Quarter

Hourly Weather History & Observations

Time (CDT) Temp. Dew Point Humidity Pressure Visibility Wind Dir Wind Speed Gust Speed Precip Events Conditions
12:13 AM 69.8 °F 62.6 °F 78% 29.84 in 10.0 mi NNW 6.9 mph 28.8 mph N/A Thunderstorm Unknown
12:34 AM 68.0 °F 62.6 °F 83% 29.84 in 10.0 mi West 5.8 mph - N/A   Clear
12:53 AM 68.0 °F 62.6 °F 83% 29.84 in 10.0 mi West 5.8 mph - N/A   Scattered Clouds
1:13 AM 68.0 °F 62.6 °F 83% 29.84 in 10.0 mi WNW 5.8 mph - N/A   Scattered Clouds
1:34 AM 68.0 °F 62.6 °F 83% 29.83 in 10.0 mi Calm Calm - N/A   Mostly Cloudy
1:53 AM 68.0 °F 62.6 °F 83% 29.83 in 10.0 mi West 3.5 mph - N/A   Scattered Clouds
2:13 AM 68.0 °F 64.4 °F 88% 29.84 in 10.0 mi SW 3.5 mph - N/A   Mostly Cloudy
2:34 AM 68.0 °F 62.6 °F 83% 29.85 in 10.0 mi SW 8.1 mph - N/A   Mostly Cloudy
2:53 AM 68.0 °F 62.6 °F 83% 29.85 in 10.0 mi WSW 6.9 mph - N/A   Overcast
3:13 AM 68.0 °F 62.6 °F 83% 29.85 in 10.0 mi West 10.4 mph - N/A   Overcast
3:34 AM 68.0 °F 62.6 °F 83% 29.85 in 10.0 mi NW 10.4 mph - N/A   Scattered Clouds
3:53 AM 68.0 °F 60.8 °F 78% 29.83 in 10.0 mi NW 11.5 mph - N/A   Clear
4:13 AM 66.2 °F 60.8 °F 83% 29.84 in 10.0 mi NNW 11.5 mph 17.3 mph N/A   Clear
4:34 AM 64.4 °F 59.0 °F 83% 29.85 in 10.0 mi NNW 12.7 mph 18.4 mph N/A   Clear
4:53 AM 64.4 °F 59.0 °F 83% 29.85 in 10.0 mi NNW 13.8 mph 19.6 mph N/A   Scattered Clouds
5:14 AM 64.4 °F 57.2 °F 77% 29.86 in 10.0 mi NNW 8.1 mph - N/A   Clear
5:33 AM 64.4 °F 57.2 °F 77% 29.87 in 10.0 mi NNW 9.2 mph - N/A   Clear
5:53 AM 62.6 °F 55.4 °F 77% 29.88 in 10.0 mi NW 5.8 mph - N/A   Clear
6:13 AM 62.6 °F 55.4 °F 77% 29.88 in 10.0 mi NW 9.2 mph - N/A   Clear
6:33 AM 60.8 °F 55.4 °F 82% 29.88 in 10.0 mi NW 8.1 mph - N/A   Clear
6:54 AM 60.8 °F 55.4 °F 82% 29.89 in 10.0 mi NW 9.2 mph - N/A   Clear
7:13 AM 60.8 °F 55.4 °F 82% 29.90 in 10.0 mi WNW 4.6 mph - N/A   Clear
7:33 AM 60.8 °F 55.4 °F 82% 29.90 in 10.0 mi NW 8.1 mph - N/A   Clear
7:54 AM 62.6 °F 55.4 °F 77% 29.91 in 10.0 mi NW 8.1 mph - N/A   Clear
8:13 AM 62.6 °F 55.4 °F 77% 29.91 in 10.0 mi NW 9.2 mph - N/A   Clear
8:33 AM 64.4 °F 55.4 °F 73% 29.92 in 10.0 mi NNW 9.2 mph - N/A   Clear
8:54 AM 66.2 °F 57.2 °F 73% 29.93 in 10.0 mi NW 8.1 mph - N/A   Clear
9:13 AM 68.0 °F 57.2 °F 68% 29.94 in 10.0 mi NW 12.7 mph - N/A   Clear
9:33 AM 68.0 °F 57.2 °F 68% 29.94 in 10.0 mi NNW 15.0 mph 18.4 mph N/A   Scattered Clouds
9:54 AM 69.8 °F 57.2 °F 64% 29.95 in 10.0 mi NW 15.0 mph 18.4 mph N/A   Clear
10:13 AM 69.8 °F 57.2 °F 64% 29.95 in 10.0 mi NW 13.8 mph 20.7 mph N/A   Clear
10:33 AM 69.8 °F 57.2 °F 64% 29.95 in 10.0 mi NNW 13.8 mph 18.4 mph N/A   Clear
10:54 AM 71.6 °F 57.2 °F 60% 29.95 in 10.0 mi NW 16.1 mph 21.9 mph N/A   Clear
11:13 AM 71.6 °F 57.2 °F 60% 29.95 in 10.0 mi NW 18.4 mph 25.3 mph N/A   Clear
11:33 AM 71.6 °F 57.2 °F 60% 29.95 in 10.0 mi NW 17.3 mph 20.7 mph N/A   Clear
11:54 AM 71.6 °F 55.4 °F 57% 29.95 in 10.0 mi NW 18.4 mph 21.9 mph N/A   Mostly Cloudy
12:13 PM 73.4 °F 57.2 °F 57% 29.95 in 10.0 mi NNW 16.1 mph 24.2 mph N/A   Scattered Clouds
12:33 PM 71.6 °F 59.0 °F 64% 29.96 in 10.0 mi NW 15.0 mph 21.9 mph N/A   Mostly Cloudy
12:53 PM 73.4 °F 59.0 °F 61% 29.96 in 10.0 mi NW 17.3 mph 23.0 mph N/A   Mostly Cloudy
1:14 PM 71.6 °F 57.2 °F 60% 29.96 in 10.0 mi North 12.7 mph 20.7 mph N/A   Mostly Cloudy
1:33 PM 71.6 °F 57.2 °F 60% 29.96 in 10.0 mi NNW 19.6 mph 25.3 mph N/A   Overcast
1:53 PM 71.6 °F 57.2 °F 60% 29.96 in 10.0 mi NW 18.4 mph 26.5 mph N/A   Overcast
2:14 PM 71.6 °F 57.2 °F 60% 29.96 in 10.0 mi NNW 17.3 mph 23.0 mph N/A   Overcast
2:33 PM 71.6 °F 57.2 °F 60% 29.95 in 10.0 mi NNW 13.8 mph 24.2 mph N/A   Overcast
2:53 PM 71.6 °F 57.2 °F 60% 29.95 in 10.0 mi NNW 23.0 mph 27.6 mph N/A   Mostly Cloudy
3:14 PM 73.4 °F 57.2 °F 57% 29.95 in 10.0 mi North 10.4 mph 27.6 mph N/A   Scattered Clouds
3:33 PM 71.6 °F 55.4 °F 57% 29.95 in 10.0 mi NNW 13.8 mph 26.5 mph N/A   Scattered Clouds
3:53 PM 71.6 °F 55.4 °F 57% 29.96 in 10.0 mi NNW 11.5 mph 20.7 mph N/A   Scattered Clouds
4:14 PM 71.6 °F 55.4 °F 57% 29.96 in 10.0 mi NNW 11.5 mph 23.0 mph N/A   Scattered Clouds
4:33 PM 71.6 °F 55.4 °F 57% 29.96 in 10.0 mi NNW 15.0 mph 26.5 mph N/A   Scattered Clouds
4:53 PM 69.8 °F 55.4 °F 60% 29.97 in 10.0 mi NNW 16.1 mph 24.2 mph N/A   Scattered Clouds
5:14 PM 69.8 °F 55.4 °F 60% 29.97 in 10.0 mi NW 18.4 mph 24.2 mph N/A   Scattered Clouds
5:33 PM 69.8 °F 55.4 °F 60% 29.98 in 10.0 mi NNW 13.8 mph 23.0 mph N/A   Scattered Clouds
5:54 PM 69.8 °F 55.4 °F 60% 29.98 in 10.0 mi NW 15.0 mph 26.5 mph N/A   Mostly Cloudy
6:13 PM 69.8 °F 55.4 °F 60% 29.98 in 10.0 mi North 11.5 mph 23.0 mph N/A   Mostly Cloudy
6:33 PM 68.0 °F 55.4 °F 64% 29.98 in 10.0 mi North 11.5 mph 20.7 mph N/A   Overcast
6:53 PM 68.0 °F 53.6 °F 60% 29.99 in 10.0 mi NNW 12.7 mph 20.7 mph N/A   Mostly Cloudy
7:13 PM 64.4 °F 53.6 °F 68% 30.00 in 10.0 mi North 9.2 mph 17.3 mph N/A   Mostly Cloudy
7:33 PM 66.2 °F 53.6 °F 64% 30.00 in 10.0 mi North 6.9 mph 18.4 mph N/A   Overcast
7:54 PM 64.4 °F 53.6 °F 68% 30.00 in 10.0 mi NNW 11.5 mph 18.4 mph N/A   Overcast
8:13 PM 64.4 °F 53.6 °F 68% 30.00 in 10.0 mi NNW 8.1 mph 16.1 mph N/A   Overcast
8:34 PM 64.4 °F 55.4 °F 73% 30.01 in 10.0 mi North 8.1 mph - N/A   Overcast
8:53 PM 64.4 °F 55.4 °F 73% 30.01 in 10.0 mi North 9.2 mph - N/A   Overcast
9:13 PM 62.6 °F 53.6 °F 72% 30.01 in 10.0 mi North 9.2 mph 16.1 mph N/A   Overcast
9:34 PM 62.6 °F 53.6 °F 72% 30.02 in 10.0 mi North 10.4 mph 17.3 mph N/A   Overcast
9:53 PM 62.6 °F 53.6 °F 72% 30.03 in 10.0 mi North 10.4 mph - N/A   Overcast
10:13 PM 62.6 °F 53.6 °F 72% 30.03 in 10.0 mi North 5.8 mph - N/A   Overcast
10:33 PM 60.8 °F 51.8 °F 72% 30.04 in 10.0 mi North 10.4 mph - N/A   Overcast
10:53 PM 60.8 °F 51.8 °F 72% 30.04 in 10.0 mi North 3.5 mph - N/A   Mostly Cloudy
11:13 PM 57.2 °F 51.8 °F 82% 30.04 in 10.0 mi NNW 3.5 mph - N/A   Clear
11:33 PM 55.4 °F 51.8 °F 88% 30.04 in 10.0 mi NNW 5.8 mph - N/A   Clear
11:53 PM 55.4 °F 51.8 °F 88% 30.04 in 10.0 mi NNW 3.5 mph - N/A   Clear